When you browse on this site, cookies collect data to enhance your experience and personalize the content and advertising you see.
Visit our Privacy Policy to learn more. By continuing to use the site, you agree to this use of cookies and data.
  • En España
  • Lista de países
  • Para 7 días
  • Temperatura del agua
  • Mapa Satelital
  • El tiempo en el mapa
  • Informadores
  • user-avatar
    Iniciar sesión

    Tiempo cada hora Satif

    Hoy, 22 Marzo, Viernes

    Tiempo Temperatura Precipitaciones Viento Presión Humedad
    00:00 +5°C° 1.2 mm 5 mps 671 mmHg 96%
    01:00 +5°C° 1.8 mm 4 mps 671 mmHg 96%
    02:00 +5°C° 1.8 mm 4 mps 671 mmHg 96%
    03:00 +5°C° 1.8 mm 3 mps 670 mmHg 96%
    04:00 +5°C° 2 mm 3 mps 671 mmHg 96%
    05:00 +5°C° 2 mm 3 mps 671 mmHg 96%
    06:00 +5°C° 2 mm 3 mps 671 mmHg 96%
    07:00 +6°C° 1.7 mm 2 mps 671 mmHg 94%
    08:00 +6°C° 1.7 mm 2 mps 672 mmHg 93%
    09:00 +7°C° 1.7 mm 2 mps 672 mmHg 91%
    10:00 +7°C° 2.6 mm 2 mps 672 mmHg 89%
    11:00 +8°C° 2.6 mm 1 mps 672 mmHg 87%
    12:00 +8°C° 2.6 mm 1 mps 672 mmHg 84%
    13:00 +7°C° 0.2 mm 2 mps 672 mmHg 81%
    14:00 +8°C° 0.2 mm 3 mps 672 mmHg 77%
    15:00 +8°C° 0.2 mm 4 mps 672 mmHg 73%
    16:00 +7°C° 0.1 mm 4 mps 672 mmHg 78%
    17:00 +6°C° 0.1 mm 4 mps 672 mmHg 83%
    18:00 +5°C° 0.1 mm 4 mps 672 mmHg 87%
    19:00 +5°C° 0 mm 3 mps 673 mmHg 90%
    20:00 +6°C° 0 mm 2 mps 673 mmHg 92%
    21:00 +6°C° 0 mm 1 mps 673 mmHg 94%
    22:00 +5°C° 0 mm 2 mps 673 mmHg 95%
    23:00 +5°C° 0 mm 2 mps 673 mmHg 95%

    Mañana, 23 Marzo, Sábado

    Tiempo Temperatura Precipitaciones Viento Presión Humedad
    00:00 +4°C° 0 mm 2 mps 673 mmHg 95%
    01:00 +4°C° 0.5 mm 2 mps 673 mmHg 94%
    02:00 +4°C° 0.5 mm 2 mps 673 mmHg 92%
    03:00 +4°C° 0.5 mm 2 mps 673 mmHg 91%
    04:00 +4°C° 0.2 mm 2 mps 673 mmHg 92%
    05:00 +4°C° 0.2 mm 2 mps 673 mmHg 93%
    06:00 +5°C° 0.2 mm 1 mps 673 mmHg 93%
    07:00 +5°C° 0.1 mm 2 mps 674 mmHg 92%
    08:00 +6°C° 0.1 mm 2 mps 674 mmHg 91%
    09:00 +7°C° 0.1 mm 2 mps 675 mmHg 90%
    10:00 +7°C° 0.1 mm 2 mps 675 mmHg 86%
    11:00 +8°C° 0.1 mm 3 mps 675 mmHg 83%
    12:00 +9°C° 0.1 mm 3 mps 675 mmHg 79%
    13:00 +9°C° 0.2 mm 3 mps 675 mmHg 79%
    14:00 +9°C° 0.2 mm 3 mps 675 mmHg 79%
    15:00 +9°C° 0.2 mm 3 mps 675 mmHg 78%
    16:00 +9°C° 0.1 mm 3 mps 675 mmHg 82%
    17:00 +8°C° 0.1 mm 2 mps 675 mmHg 85%
    18:00 +8°C° 0.1 mm 2 mps 675 mmHg 89%
    19:00 +7°C° 0 mm 2 mps 675 mmHg 90%
    20:00 +7°C° 0 mm 2 mps 675 mmHg 92%
    21:00 +7°C° 0 mm 1 mps 675 mmHg 94%
    22:00 +7°C° 0 mm 1 mps 675 mmHg 94%
    23:00 +6°C° 0 mm 1 mps 675 mmHg 94%

    Pasado mañana, 24 Marzo, Domingo

    Tiempo Temperatura Precipitaciones Viento Presión Humedad
    00:00 +6°C° 0 mm 1 mps 675 mmHg 94%
    01:00 +5°C° 0 mm 1 mps 675 mmHg 93%
    02:00 +5°C° 0 mm 1 mps 675 mmHg 93%
    03:00 +5°C° 0 mm 1 mps 674 mmHg 92%
    04:00 +5°C° 0 mm 1 mps 674 mmHg 91%
    05:00 +5°C° 0 mm 1 mps 675 mmHg 89%
    06:00 +5°C° 0 mm 1 mps 675 mmHg 88%
    07:00 +7°C° 0 mm 1 mps 675 mmHg 80%
    08:00 +8°C° 0 mm 2 mps 676 mmHg 72%
    09:00 +10°C° 0 mm 2 mps 677 mmHg 64%
    10:00 +13°C° 0 mm 2 mps 677 mmHg 59%
    11:00 +14°C° 0 mm 2 mps 677 mmHg 54%
    12:00 +15°C° 0 mm 2 mps 677 mmHg 50%
    13:00 +15°C° 0 mm 2 mps 677 mmHg 49%
    14:00 +15°C° 0 mm 2 mps 677 mmHg 48%
    15:00 +15°C° 0 mm 1 mps 676 mmHg 47%
    16:00 +14°C° 0.1 mm 1 mps 676 mmHg 54%
    17:00 +13°C° 0.1 mm 1 mps 675 mmHg 61%
    18:00 +12°C° 0.1 mm 1 mps 675 mmHg 68%
    19:00 +11°C° 0 mm 1 mps 675 mmHg 68%
    20:00 +11°C° 0 mm 1 mps 676 mmHg 68%
    21:00 +9°C° 0 mm 2 mps 676 mmHg 67%
    22:00 +9°C° 0 mm 2 mps 676 mmHg 66%
    23:00 +8°C° 0 mm 2 mps 675 mmHg 65%

    25 Marzo, Lunes

    Tiempo Temperatura Precipitaciones Viento Presión Humedad
    00:00 +8°C° 0 mm 2 mps 675 mmHg 64%
    01:00 +7°C° 0 mm 2 mps 675 mmHg 65%
    02:00 +7°C° 0 mm 2 mps 674 mmHg 66%
    03:00 +6°C° 0 mm 2 mps 674 mmHg 67%
    04:00 +6°C° 0 mm 2 mps 674 mmHg 68%
    05:00 +6°C° 0 mm 2 mps 674 mmHg 70%
    06:00 +6°C° 0 mm 2 mps 674 mmHg 72%
    07:00 +8°C° 0 mm 2 mps 675 mmHg 65%
    08:00 +10°C° 0 mm 2 mps 676 mmHg 58%
    09:00 +12°C° 0 mm 3 mps 676 mmHg 50%
    10:00 +13°C° 0 mm 3 mps 676 mmHg 47%
    11:00 +15°C° 0 mm 2 mps 676 mmHg 43%
    12:00 +16°C° 0 mm 2 mps 676 mmHg 39%
    13:00 +16°C° 0 mm 2 mps 676 mmHg 38%
    14:00 +17°C° 0 mm 2 mps 675 mmHg 38%
    15:00 +17°C° 0 mm 2 mps 675 mmHg 37%
    16:00 +16°C° 0 mm 1 mps 675 mmHg 45%
    17:00 +14°C° 0 mm 1 mps 674 mmHg 52%
    18:00 +13°C° 0 mm 1 mps 674 mmHg 60%
    19:00 +12°C° 0 mm 1 mps 674 mmHg 65%
    20:00 +11°C° 0 mm 1 mps 674 mmHg 69%
    21:00 +9°C° 0 mm 0 mps 674 mmHg 74%
    22:00 +10°C° 0 mm 1 mps 674 mmHg 75%
    23:00 +10°C° 0 mm 1 mps 674 mmHg 76%

    26 Marzo, Martes

    Tiempo Temperatura Precipitaciones Viento Presión Humedad
    00:00 +9°C° 0 mm 1 mps 674 mmHg 77%
    01:00 +9°C° 0 mm 1 mps 674 mmHg 76%
    02:00 +9°C° 0 mm 1 mps 673 mmHg 74%
    03:00 +8°C° 0 mm 1 mps 673 mmHg 73%
    04:00 +8°C° 0 mm 1 mps 673 mmHg 72%
    05:00 +8°C° 0 mm 1 mps 673 mmHg 70%
    06:00 +8°C° 0 mm 1 mps 673 mmHg 68%
    07:00 +9°C° 0 mm 0 mps 674 mmHg 60%
    08:00 +12°C° 0 mm 0 mps 674 mmHg 51%
    09:00 +14°C° 0 mm 0 mps 675 mmHg 42%
    10:00 +15°C° 0 mm 0 mps 675 mmHg 40%
    11:00 +16°C° 0 mm 0 mps 676 mmHg 38%
    12:00 +17°C° 0 mm 0 mps 676 mmHg 36%
    13:00 +19°C° 0 mm 1 mps 675 mmHg 37%
    14:00 +19°C° 0 mm 1 mps 675 mmHg 38%
    15:00 +18°C° 0 mm 2 mps 675 mmHg 40%
    16:00 +17°C° 0 mm 2 mps 675 mmHg 50%
    17:00 +16°C° 0 mm 2 mps 675 mmHg 60%
    18:00 +14°C° 0 mm 2 mps 674 mmHg 69%
    19:00 +13°C° 0 mm 2 mps 675 mmHg 76%
    20:00 +13°C° 0 mm 2 mps 675 mmHg 82%
    21:00 +12°C° 0 mm 2 mps 675 mmHg 88%
    22:00 +10°C° 0 mm 2 mps 675 mmHg 90%
    23:00 +10°C° 0 mm 2 mps 675 mmHg 91%

    27 Marzo, Miércoles

    Tiempo Temperatura Precipitaciones Viento Presión Humedad
    00:00 +10°C° 0 mm 2 mps 674 mmHg 93%
    01:00 +10°C° 0 mm 2 mps 674 mmHg 92%
    02:00 +9°C° 0 mm 2 mps 674 mmHg 92%
    03:00 +9°C° 0 mm 2 mps 674 mmHg 91%
    04:00 +9°C° 0 mm 2 mps 674 mmHg 90%
    05:00 +9°C° 0 mm 2 mps 674 mmHg 89%
    06:00 +9°C° 0 mm 2 mps 674 mmHg 88%
    07:00 +12°C° 0 mm 2 mps 675 mmHg 77%
    08:00 +13°C° 0 mm 2 mps 676 mmHg 67%
    09:00 +15°C° 0 mm 2 mps 676 mmHg 56%
    10:00 +16°C° 0 mm 3 mps 677 mmHg 51%
    11:00 +17°C° 0 mm 3 mps 677 mmHg 46%
    12:00 +18°C° 0 mm 3 mps 677 mmHg 41%
    13:00 +18°C° 0 mm 4 mps 677 mmHg 41%
    14:00 +18°C° 0 mm 4 mps 677 mmHg 41%
    15:00 +18°C° 0 mm 4 mps 677 mmHg 41%
    16:00 +17°C° 0 mm 3 mps 676 mmHg 45%
    17:00 +16°C° 0 mm 3 mps 676 mmHg 50%
    18:00 +14°C° 0 mm 2 mps 676 mmHg 54%
    19:00 +14°C° 0 mm 2 mps 676 mmHg 57%
    20:00 +13°C° 0 mm 2 mps 677 mmHg 60%
    21:00 +13°C° 0 mm 2 mps 677 mmHg 63%
    22:00 +12°C° 0 mm 2 mps 677 mmHg 64%
    23:00 +12°C° 0 mm 1 mps 676 mmHg 66%
    Mostrar más